• In Hungary
  • List of Countries
  • For 7 days
  • Water Temperature
  • Satellite Maps
  • Weather Map
  • News
  • Weather Widgets
  • user-avatar
    Login

    Hourly Weather Voshodyaschiy

    Today, 13 November, Tuesday

    Time Temperature Precipitation Wind Pressure Humidity
    00:00 -7°C° 0 mm 1 mps 781 mmHg 42%
    01:00 -7°C° 0 mm 1 mps 781 mmHg 42%
    02:00 -7°C° 0 mm 1 mps 780 mmHg 43%
    03:00 -7°C° 0 mm 1 mps 780 mmHg 43%
    04:00 -7°C° 0 mm 1 mps 780 mmHg 43%
    05:00 -7°C° 0 mm 1 mps 780 mmHg 43%
    06:00 -7°C° 0 mm 1 mps 780 mmHg 43%
    07:00 -7°C° 0 mm 1 mps 780 mmHg 43%
    08:00 -8°C° 0 mm 2 mps 780 mmHg 40%
    09:00 -7°C° 0 mm 2 mps 780 mmHg 37%
    10:00 -6°C° 0 mm 2 mps 779 mmHg 34%
    11:00 -5°C° 0 mm 2 mps 779 mmHg 30%
    12:00 -4°C° 0 mm 2 mps 779 mmHg 27%
    13:00 -3°C° 0 mm 2 mps 779 mmHg 24%
    14:00 -3°C° 0 mm 2 mps 778 mmHg 25%
    15:00 -4°C° 0 mm 2 mps 778 mmHg 25%
    16:00 -2°C° 0 mm 1 mps 778 mmHg 26%
    17:00 -4°C° 0 mm 2 mps 778 mmHg 27%
    18:00 -5°C° 0 mm 2 mps 777 mmHg 29%
    19:00 -6°C° 0 mm 2 mps 777 mmHg 30%
    20:00 -6°C° 0 mm 2 mps 777 mmHg 31%
    21:00 -6°C° 0 mm 2 mps 777 mmHg 31%
    22:00 -4°C° 0 mm 1 mps 777 mmHg 32%
    23:00 -4°C° 0 mm 1 mps 777 mmHg 32%

    Tomorrow, 14 November, Wednesday

    Time Temperature Precipitation Wind Pressure Humidity
    00:00 -4°C° 0 mm 1 mps 776 mmHg 32%
    01:00 -6°C° 0 mm 1 mps 776 mmHg 32%
    02:00 -6°C° 0 mm 1 mps 776 mmHg 32%
    03:00 -6°C° 0 mm 1 mps 776 mmHg 32%
    04:00 -6°C° 0 mm 1 mps 776 mmHg 33%
    05:00 -6°C° 0 mm 1 mps 775 mmHg 33%
    06:00 -6°C° 0 mm 1 mps 775 mmHg 33%
    07:00 -6°C° 0 mm 1 mps 775 mmHg 33%
    08:00 -6°C° 0 mm 1 mps 775 mmHg 31%
    09:00 -4°C° 0 mm 1 mps 775 mmHg 29%
    10:00 -3°C° 0 mm 1 mps 775 mmHg 26%
    11:00 -3°C° 0 mm 0 mps 774 mmHg 24%
    12:00 -2°C° 0 mm 0 mps 774 mmHg 22%
    13:00 -1°C° 0 mm 0 mps 774 mmHg 20%
    14:00 -1°C° 0 mm 0 mps 774 mmHg 21%
    15:00 -2°C° 0 mm 0 mps 773 mmHg 21%
    16:00 -2°C° 0 mm 0 mps 773 mmHg 22%
    17:00 -2°C° 0 mm 0 mps 773 mmHg 23%
    18:00 -3°C° 0 mm 0 mps 773 mmHg 24%
    19:00 -3°C° 0 mm 0 mps 773 mmHg 24%
    20:00 -3°C° 0 mm 1 mps 773 mmHg 24%
    21:00 -3°C° 0 mm 1 mps 773 mmHg 24%
    22:00 -3°C° 0 mm 1 mps 773 mmHg 24%
    23:00 -3°C° 0 mm 1 mps 773 mmHg 24%

    Day after tomorrow, 15 November, Thursday

    Time Temperature Precipitation Wind Pressure Humidity
    00:00 -4°C° 0 mm 0 mps 773 mmHg 24%
    01:00 -4°C° 0 mm 0 mps 773 mmHg 24%
    02:00 -4°C° 0 mm 0 mps 773 mmHg 24%
    03:00 -5°C° 0 mm 0 mps 773 mmHg 24%
    04:00 -4°C° 0 mm 1 mps 773 mmHg 24%
    05:00 -4°C° 0 mm 1 mps 773 mmHg 24%
    06:00 -4°C° 0 mm 1 mps 773 mmHg 24%
    07:00 -4°C° 0 mm 1 mps 773 mmHg 24%
    08:00 -3°C° 0 mm 1 mps 773 mmHg 23%
    09:00 -2°C° 0 mm 1 mps 773 mmHg 22%
    10:00 -2°C° 0 mm 1 mps 774 mmHg 20%
    11:00 -1°C° 0 mm 1 mps 774 mmHg 19%
    12:00 0°C° 0 mm 1 mps 774 mmHg 17%
    13:00 +1°C° 0 mm 1 mps 774 mmHg 16%
    14:00 +1°C° 0 mm 1 mps 774 mmHg 17%
    15:00 +1°C° 0 mm 1 mps 774 mmHg 18%
    16:00 0°C° 0 mm 1 mps 774 mmHg 19%
    17:00 0°C° 0 mm 1 mps 774 mmHg 20%
    18:00 -3°C° 0 mm 2 mps 774 mmHg 21%
    19:00 -4°C° 0 mm 2 mps 774 mmHg 22%
    20:00 -4°C° 0 mm 2 mps 774 mmHg 22%
    21:00 -4°C° 0 mm 2 mps 774 mmHg 22%
    22:00 -4°C° 0 mm 2 mps 774 mmHg 23%
    23:00 -4°C° 0 mm 2 mps 774 mmHg 23%

    16 November, Friday

    Time Temperature Precipitation Wind Pressure Humidity
    00:00 -5°C° 0 mm 2 mps 774 mmHg 23%
    01:00 -5°C° 0 mm 2 mps 774 mmHg 24%
    02:00 -5°C° 0 mm 2 mps 774 mmHg 24%
    03:00 -5°C° 0 mm 2 mps 774 mmHg 25%
    04:00 -5°C° 0 mm 2 mps 774 mmHg 25%
    05:00 -5°C° 0 mm 2 mps 774 mmHg 25%
    06:00 -6°C° 0 mm 2 mps 774 mmHg 26%
    07:00 -6°C° 0 mm 2 mps 774 mmHg 26%
    08:00 -5°C° 0 mm 2 mps 774 mmHg 25%
    09:00 -4°C° 0 mm 2 mps 774 mmHg 24%
    10:00 -4°C° 0 mm 2 mps 774 mmHg 23%
    11:00 -2°C° 0 mm 2 mps 774 mmHg 22%
    12:00 +1°C° 0 mm 1 mps 774 mmHg 20%
    13:00 +2°C° 0 mm 1 mps 774 mmHg 19%
    14:00 +1°C° 0 mm 1 mps 774 mmHg 20%
    15:00 +1°C° 0 mm 1 mps 773 mmHg 22%
    16:00 0°C° 0 mm 1 mps 773 mmHg 24%
    17:00 0°C° 0 mm 1 mps 773 mmHg 24%
    18:00 -1°C° 0 mm 1 mps 773 mmHg 25%
    19:00 -2°C° 0 mm 1 mps 773 mmHg 26%
    20:00 -2°C° 0 mm 1 mps 772 mmHg 27%
    21:00 -2°C° 0 mm 1 mps 772 mmHg 27%
    22:00 -2°C° 0 mm 1 mps 772 mmHg 28%
    23:00 -3°C° 0 mm 0 mps 772 mmHg 28%

    17 November, Saturday

    Time Temperature Precipitation Wind Pressure Humidity
    00:00 -4°C° 0 mm 0 mps 771 mmHg 28%
    01:00 -4°C° 0 mm 0 mps 771 mmHg 29%
    02:00 -4°C° 0 mm 0 mps 771 mmHg 29%
    03:00 -4°C° 0 mm 0 mps 771 mmHg 29%
    04:00 -4°C° 0 mm 0 mps 770 mmHg 29%
    05:00 -3°C° 0 mm 1 mps 770 mmHg 28%
    06:00 -4°C° 0 mm 1 mps 769 mmHg 28%
    07:00 -4°C° 0 mm 1 mps 769 mmHg 28%
    08:00 -3°C° 0 mm 1 mps 769 mmHg 26%
    09:00 -2°C° 0 mm 1 mps 768 mmHg 24%
    10:00 -2°C° 0 mm 1 mps 768 mmHg 21%
    11:00 -3°C° 0 mm 2 mps 767 mmHg 20%
    12:00 -2°C° 0 mm 2 mps 767 mmHg 18%
    13:00 -1°C° 0 mm 2 mps 766 mmHg 16%
    14:00 -1°C° 0 mm 2 mps 766 mmHg 18%
    15:00 -1°C° 0 mm 2 mps 765 mmHg 19%
    16:00 -2°C° 0 mm 2 mps 765 mmHg 21%
    17:00 -2°C° 0 mm 2 mps 764 mmHg 22%
    18:00 -2°C° 0 mm 2 mps 764 mmHg 23%
    19:00 -2°C° 0 mm 2 mps 764 mmHg 24%
    20:00 -2°C° 0 mm 2 mps 763 mmHg 26%
    21:00 -3°C° 0 mm 2 mps 763 mmHg 29%
    22:00 -3°C° 0 mm 2 mps 762 mmHg 31%
    23:00 -3°C° 0 mm 2 mps 762 mmHg 35%

    18 November, Sunday

    Time Temperature Precipitation Wind Pressure Humidity
    00:00 -3°C° 0 mm 2 mps 762 mmHg 38%
    01:00 -3°C° 0 mm 2 mps 761 mmHg 41%
    02:00 -3°C° 0 mm 2 mps 761 mmHg 45%
    03:00 -1°C° 0 mm 1 mps 761 mmHg 49%
    04:00 -1°C° 0 mm 1 mps 760 mmHg 53%
    05:00 -1°C° 0 mm 1 mps 760 mmHg 55%
    06:00 -1°C° 0 mm 1 mps 759 mmHg 57%
    07:00 -3°C° 0 mm 2 mps 759 mmHg 60%
    08:00 -3°C° 0 mm 2 mps 759 mmHg 59%
    09:00 -3°C° 0 mm 2 mps 759 mmHg 59%
    10:00 -3°C° 0 mm 2 mps 759 mmHg 59%
    11:00 -2°C° 0 mm 2 mps 758 mmHg 57%
    12:00 -2°C° 0 mm 2 mps 758 mmHg 56%
    13:00 -1°C° 0 mm 2 mps 758 mmHg 54%
    14:00 -1°C° 0 mm 2 mps 758 mmHg 55%
    15:00 -1°C° 0 mm 2 mps 758 mmHg 55%
    16:00 -1°C° 0 mm 2 mps 758 mmHg 55%
    17:00 -2°C° 0 mm 2 mps 758 mmHg 56%
    18:00 -2°C° 0 mm 2 mps 758 mmHg 56%
    19:00 -2°C° 0 mm 2 mps 758 mmHg 57%
    20:00 -2°C° 0.1 mm 2 mps 758 mmHg 58%
    21:00 0°C° 0.1 mm 1 mps 759 mmHg 59%
    22:00 0°C° 0.1 mm 1 mps 759 mmHg 60%
    23:00 0°C° 0.1 mm 1 mps 759 mmHg 62%
    Show more